Weather History for Moriarty, NM

Change the Weather History Date:

Thursday, April 24, 2014

  Actual Average (KABQ) Record (KABQ)
Temperature  
Mean Temperature 51 °F 59 °F  
Max Temperature 68 °F 72 °F 88 °F (1996)
Min Temperature 34 °F 46 °F 28 °F (1913)
Degree Days  
Heating Degree Days 14 7  
Month to date heating degree days 242  
Since 1 July heating degree days 4069  
Cooling Degree Days 0 0  
Month to date cooling degree days 0  
Year to date cooling degree days 0  
Growing Degree Days 1 (Base 50)    
Moisture  
Dew Point 8 °F    
Average Humidity 20    
Maximum Humidity 36    
Minimum Humidity 9    
Precipitation  
Precipitation 0.00 in 0.01 in 0.59 in (1980)
Month to date precipitation 0.50  
Year to date precipitation 1.93  
Snow  
Snow 0.00 in - - ()
Month to date snowfall  
Since 1 July snowfall  
Snow Depth -    
Sea Level Pressure  
Sea Level Pressure 30.08 in    
Wind  
Wind Speed 11 mph (NW)    
Max Wind Speed 23 mph    
Max Gust Speed 32 mph    
Visibility 10 miles    
Events      
T = Trace of Precipitation, MM = Missing Value Source: NWS Daily Summary

Daily Weather History Graph

Daily Weather History Graph

Search for Another Location

Airport:

Trip Planner

Search our weather history database for the weather conditions in past years. The results will help you decide how hot, cold, wet, or windy it might be!

Date:

Astronomy

Apr. 24, 2014 Rise Set
Actual Time 6:20 AM MDT 7:43 PM MDT
Civil Twilight 5:54 AM MDT 8:10 PM MDT
Nautical Twilight 5:22 AM MDT 8:42 PM MDT
Astronomical Twilight 4:49 AM MDT 9:15 PM MDT
Moon 3:21 AM MDT (4/24) 3:13 PM MDT (4/24)
Length of Visible Light 14h 16m
Length of Day
13h 22m
Waning Crescent, 24% of the Moon is Illuminated
Apr 24
Waning Crescent
Apr 29
New
May 6
First Quarter
May 14
Full
May 21
Last Quarter

Hourly Weather History & Observations

Time (MDT) Temp. Windchill Dew Point Humidity Pressure Visibility Wind Dir Wind Speed Gust Speed Precip Events Conditions
12:15 AM 48.2 °F - 11.7 °F 23% 29.96 in 10.0 mi WNW 17.3 mph - N/A   Clear
12:35 AM 47.7 °F - 9.1 °F 21% 29.97 in 10.0 mi WNW 15.0 mph 20.7 mph N/A   Clear
12:55 AM 48.2 °F - 7.3 °F 19% 29.98 in 10.0 mi WNW 23.0 mph 32.2 mph N/A   Clear
1:15 AM 46.4 °F 40.4 °F 9.5 °F 22% 29.99 in 10.0 mi NW 13.8 mph - N/A   Clear
1:35 AM 44.1 °F 38.1 °F 10.4 °F 25% 30.00 in 10.0 mi NNW 11.5 mph - N/A   Clear
1:55 AM 40.8 °F 35.0 °F 10.8 °F 29% 30.01 in 10.0 mi NNW 9.2 mph - N/A   Clear
2:15 AM 40.6 °F 33.0 °F 10.4 °F 29% 30.01 in 10.0 mi NNW 13.8 mph - N/A   Clear
2:35 AM 39.9 °F 31.8 °F 10.6 °F 30% 30.02 in 10.0 mi NNW 15.0 mph - N/A   Clear
2:55 AM 40.6 °F 31.4 °F 10.2 °F 29% 30.01 in 10.0 mi NW 19.6 mph - N/A   Clear
3:15 AM 42.8 °F 34.3 °F 9.5 °F 26% 30.01 in 10.0 mi NW 19.6 mph - N/A   Clear
3:35 AM 41.4 °F 34.0 °F 10.4 °F 28% 30.02 in 10.0 mi NW 13.8 mph - N/A   Clear
3:55 AM 40.3 °F 35.5 °F 9.7 °F 28% 30.04 in 10.0 mi ENE 6.9 mph - N/A   Clear
4:15 AM 42.6 °F 35.6 °F 9.9 °F 26% 30.04 in 10.0 mi NNW 13.8 mph 18.4 mph N/A   Clear
4:35 AM 39.0 °F 32.8 °F 10.4 °F 31% 30.04 in 10.0 mi WNW 9.2 mph - N/A   Clear
4:55 AM 40.1 °F 32.7 °F 10.4 °F 30% 30.05 in 10.0 mi West 12.7 mph - N/A   Clear
5:15 AM 38.1 °F 35.7 °F 10.0 °F 31% 30.06 in 10.0 mi North 3.5 mph - N/A   Clear
5:35 AM 36.0 °F 27.1 °F 10.2 °F 34% 30.06 in 10.0 mi WNW 13.8 mph - N/A   Clear
5:55 AM 35.1 °F 28.6 °F 9.5 °F 35% 30.06 in 10.0 mi NW 8.1 mph - N/A   Clear
6:15 AM 34.2 °F 29.0 °F 9.7 °F 36% 30.08 in 10.0 mi North 5.8 mph - N/A   Clear
6:35 AM 36.0 °F 32.1 °F 9.1 °F 33% 30.10 in 10.0 mi ENE 4.6 mph - N/A   Clear
6:55 AM 35.8 °F 29.4 °F 9.1 °F 33% 30.11 in 10.0 mi North 8.1 mph - N/A   Clear
7:15 AM 37.6 °F 35.1 °F 10.2 °F 32% 30.14 in 10.0 mi South 3.5 mph - N/A   Clear
7:35 AM 41.9 °F 40.0 °F 10.0 °F 27% 30.14 in 10.0 mi North 3.5 mph - N/A   Clear
7:55 AM 44.6 °F 42.2 °F 9.9 °F 24% 30.16 in 10.0 mi NNE 4.6 mph - N/A   Clear
8:15 AM 47.3 °F - 9.5 °F 22% 30.16 in 10.0 mi NNE 10.4 mph - N/A   Clear
8:35 AM 48.0 °F - 9.1 °F 21% 30.16 in 10.0 mi North 8.1 mph - N/A   Clear
8:55 AM 50.2 °F - 7.0 °F 17% 30.16 in 10.0 mi North 6.9 mph - N/A   Clear
9:15 AM 50.9 °F - 7.2 °F 17% 30.16 in 10.0 mi NW 8.1 mph - N/A   Clear
9:35 AM 52.2 °F - 5.7 °F 15% 30.16 in 10.0 mi WNW 9.2 mph - N/A   Clear
9:55 AM 53.1 °F - 6.8 °F 16% 30.16 in 10.0 mi NNW 4.6 mph - N/A   Clear
10:15 AM 54.3 °F - 6.6 °F 15% 30.16 in 10.0 mi NNW 8.1 mph - N/A   Clear
10:35 AM 55.4 °F - 5.7 °F 14% 30.16 in 10.0 mi North 3.5 mph - N/A   Clear
10:55 AM 56.3 °F - 4.5 °F 12% 30.17 in 10.0 mi North 8.1 mph - N/A   Clear
11:15 AM 57.9 °F - 6.8 °F 13% 30.16 in 10.0 mi NNW 6.9 mph - N/A   Clear
11:35 AM 60.8 °F - 8.8 °F 13% 30.16 in 10.0 mi NW 10.4 mph - N/A   Clear
11:55 AM 60.4 °F - 9.0 °F 13% 30.16 in 10.0 mi NW 6.9 mph - N/A   Clear
12:15 PM 60.3 °F - 8.4 °F 13% 30.15 in 10.0 mi NNW 6.9 mph - N/A   Clear
12:35 PM 62.4 °F - 10.8 °F 13% 30.14 in 10.0 mi WNW 6.9 mph - N/A   Clear
12:55 PM 63.5 °F - 9.3 °F 12% 30.14 in 10.0 mi SW 8.1 mph - N/A   Clear
1:15 PM 63.5 °F - 4.3 °F 10% 30.13 in 10.0 mi West 11.5 mph 28.8 mph N/A   Clear
1:35 PM 64.9 °F - 5.2 °F 9% 30.12 in 10.0 mi West 13.8 mph 23.0 mph N/A   Clear
1:55 PM 63.9 °F - 5.4 °F 10% 30.12 in 10.0 mi West 18.4 mph 21.9 mph N/A   Clear
2:15 PM 64.4 °F - 7.0 °F 10% 30.11 in 10.0 mi West 15.0 mph 21.9 mph N/A   Clear
2:35 PM 64.2 °F - 6.3 °F 10% 30.11 in 10.0 mi WNW 10.4 mph 19.6 mph N/A   Clear
2:55 PM 63.5 °F - 5.0 °F 10% 30.10 in 10.0 mi West 10.4 mph 18.4 mph N/A   Clear
3:15 PM 65.3 °F - 5.0 °F 9% 30.10 in 10.0 mi West 11.5 mph - N/A   Clear
3:35 PM 65.7 °F - 8.2 °F 11% 30.08 in 10.0 mi West 11.5 mph - N/A   Clear
3:55 PM 66.2 °F - 7.7 °F 10% 30.08 in 10.0 mi West 11.5 mph 19.6 mph N/A   Clear
4:15 PM 66.0 °F - 7.9 °F 10% 30.08 in 10.0 mi West 11.5 mph 18.4 mph N/A   Clear
4:35 PM 67.5 °F - 8.4 °F 10% 30.07 in 10.0 mi WSW 13.8 mph 19.6 mph N/A   Clear
4:55 PM 67.6 °F - 7.3 °F 9% 30.06 in 10.0 mi West 17.3 mph - N/A   Clear
5:15 PM 68.0 °F - 8.6 °F 10% 30.06 in 10.0 mi West 12.7 mph 17.3 mph N/A   Clear
5:35 PM 67.8 °F - 8.2 °F 10% 30.05 in 10.0 mi WNW 12.7 mph 18.4 mph N/A   Clear
5:55 PM 67.1 °F - 8.6 °F 10% 30.05 in 10.0 mi WNW 11.5 mph - N/A   Clear
6:15 PM 66.6 °F - 8.2 °F 10% 30.04 in 10.0 mi WNW 11.5 mph - N/A   Clear
6:35 PM 65.8 °F - 8.4 °F 11% 30.04 in 10.0 mi West 10.4 mph - N/A   Clear
6:55 PM 64.6 °F - 9.1 °F 11% 30.04 in 10.0 mi WNW 9.2 mph - N/A   Clear
7:15 PM 62.4 °F - 9.3 °F 12% 30.05 in 10.0 mi West 6.9 mph - N/A   Clear
7:35 PM 59.7 °F - 8.4 °F 13% 30.05 in 10.0 mi West 8.1 mph - N/A   Clear
7:55 PM 57.2 °F - 7.7 °F 14% 30.06 in 10.0 mi West 6.9 mph - N/A   Clear
8:15 PM 53.6 °F - 7.9 °F 16% 30.07 in 10.0 mi WNW 8.1 mph - N/A   Clear
8:35 PM 53.6 °F - 7.5 °F 16% 30.07 in 10.0 mi WNW 9.2 mph - N/A   Clear
8:55 PM 45.5 °F 41.8 °F 7.0 °F 21% 30.07 in 10.0 mi NNW 6.9 mph - N/A   Clear
9:15 PM 45.1 °F 42.0 °F 11.1 °F 25% 30.08 in 10.0 mi WNW 5.8 mph - N/A   Clear
9:35 PM 44.4 °F 42.0 °F 8.8 °F 23% 30.09 in 10.0 mi South 4.6 mph - N/A   Clear
9:55 PM 42.6 °F - 8.6 °F 25% 30.10 in 10.0 mi Calm Calm - N/A   Clear
10:15 PM 41.5 °F 37.8 °F 9.9 °F 27% 30.09 in 10.0 mi NNE 5.8 mph - N/A   Clear
10:35 PM 38.3 °F 32.5 °F 9.5 °F 31% 30.09 in 10.0 mi ENE 8.1 mph - N/A   Clear
10:55 PM 37.8 °F 33.3 °F 9.0 °F 30% 30.09 in 10.0 mi NE 5.8 mph - N/A   Clear
11:15 PM 36.7 °F 34.1 °F 8.8 °F 31% 30.09 in 10.0 mi SSE 3.5 mph - N/A   Clear
11:35 PM 35.2 °F 32.4 °F 8.4 °F 33% 30.08 in 10.0 mi NNE 3.5 mph - N/A   Clear
11:55 PM 35.1 °F - 8.1 °F 33% 30.08 in 10.0 mi Calm Calm - N/A   Clear